Temp
26 26 27 27 27 27 27 26 26 26 26 26 26 26 26 26 26 26 25 25 25 25 25 25 25 25 25 25 25 25 25 25 26 26 25 25 25 26 27 27 27 27
26 26 26 27 27 27 27 27 27 27 27 27 27 27 27 27 26 26 26 26 25 25 25 25 25 25 25 25 25 25 25 25 26 26 26 25 25 26 27 27 27 27
26 26 26 27 27 27 27 27 27 27 27 27 27 27 27 27 27 27 27 26 26 26 25 25 25 25 25 25 25 25 25 25 25 26 26 26 26 26 27 27 27 27
26 26 27 27 27 27 27 27 27 27 27 27 27 27 27 27 27 27 26 26 26 26 26 25 25 25 25 25 25 25 25 25 25 26 26 26 26 26 26 27 27 28
26 27 27 27 28 28 27 28 28 28 28 28 27 27 27 27 27 27 26 26 26 26 26 26 25 25 25 25 25 25 25 25 25 26 26 26 26 26 26 27 27 28
26 27 27 27 28 28 28 28 28 28 28 28 28 28 28 28 27 27 26 26 26 26 26 26 26 26 25 25 25 25 26 26 26 26 26 26 26 26 27 27 27 27
27 27 27 27 28 28 28 28 28 28 28 28 28 28 28 28 27 27 27 27 26 27 27 27 26 26 26 26 25 25 26 26 26 26 26 26 26 26 27 27 27 27
27 27 27 27 28 28 28 28 28 28 28 29 29 28 28 28 27 27 27 27 27 27 27 27 27 27 26 26 26 26 26 26 26 26 26 26 26 26 26 27 27 27
28 28 27 27 28 28 28 29 29 28 28 29 29 29 29 28 28 28 27 27 27 27 28 28 27 27 27 27 27 26 26 26 27 27 26 26 26 26 26 26 27 27
28 28 28 28 28 29 29 29 29 29 28 28 29 29 29 29 28 28 28 28 28 28 28 28 28 28 27 27 27 27 26 26 27 27 27 26 26 26 26 26 26 26
28 28 29 29 29 29 29 29 29 29 29 29 29 29 29 29 29 28 28 28 28 28 28 28 28 28 27 27 27 27 27 27 27 27 27 27 26 26 26 26 26 26
27 28 28 29 29 29 29 30 30 30 30 29 29 29 29 29 29 29 28 28 28 28 28 27 27 27 27 27 27 27 27 27 27 27 27 27 27 27 27 27 27 27
26 27 27 28 29 30 30 30 30 30 30 30 29 29 29 30 30 29 28 28 28 28 28 28 27 27 27 27 27 27 27 27 27 27 27 27 27 27 27 27 27 27
24 24 24 25 26 28 30 31 31 31 31 31 30 29 29 30 30 30 29 29 28 28 28 28 27 27 27 27 27 27 28 28 27 27 27 27 27 27 27 27 28 28
24 23 23 24 24 25 27 29 30 31 31 31 31 30 30 30 30 30 30 29 29 28 28 28 28 27 27 27 27 27 27 28 28 28 28 28 28 28 28 28 28 28
24 24 23 23 23 24 25 26 27 29 31 31 31 31 30 30 30 31 31 30 29 29 28 28 28 28 28 27 27 27 27 28 28 28 28 28 28 29 29 29 29 29
23 24 23 22 22 24 26 26 25 24 26 28 30 31 31 31 30 30 31 31 30 29 29 28 28 29 28 28 27 27 27 27 28 28 28 28 28 28 29 29 29 29
22 23 23 21 21 22 24 26 25 24 23 24 25 27 30 31 31 31 30 31 31 30 30 29 29 29 29 29 28 28 27 27 27 28 28 28 28 28 28 29 29 29
21 22 21 21 22 22 22 23 24 25 25 23 23 23 25 26 28 30 30 30 31 31 31 30 29 29 29 29 29 29 28 28 27 28 28 28 29 29 28 29 29 29
21 21 21 21 22 22 22 22 22 23 24 25 25 25 25 25 26 27 29 29 30 30 30 30 30 30 29 29 29 29 29 28 28 28 28 29 29 29 29 29 29 29
20 20 21 21 21 22 22 21 22 23 23 23 24 25 25 25 25 25 26 27 27 28 29 29 29 29 29 29 29 29 29 29 28 28 28 28 29 29 29 29 29 29
20 20 20 20 20 21 22 21 22 22 22 23 23 23 24 24 24 25 25 26 26 26 27 27 28 28 28 28 28 29 29 29 28 28 28 28 29 29 29 29 29 29
21 20 20 20 20 20 21 21 21 22 22 22 23 23 24 24 24 24 25 25 25 25 25 26 27 27 28 28 28 28 28 29 29 28 28 28 28 28 29 29 29 29
21 21 20 20 20 20 20 20 21 21 21 22 22 22 23 23 23 24 24 25 25 25 25 25 25 26 27 27 28 27 28 28 28 28 28 28 28 28 28 28 28 29
21 21 21 21 20 20 20 20 20 20 20 21 21 21 21 22 22 22 23 23 24 24 25 25 25 26 26 26 27 27 27 27 28 27 27 27 27 27 27 27 27 28
22 21 21 22 21 21 20 20 20 20 20 20 20 20 21 22 22 22 23 23 23 24 24 24 25 25 25 26 26 26 27 27 27 26 26 27 27 26 26 27 27 27
Height
827 828 829 831 832 833 833 834 835 836 837 838 839 840 840 842 843 844 845 846 847 849 850 851 852 852 854 855 855 856 857 859 860 860 861 862 863 863 863 864 864 864
826 827 828 830 830 832 832 833 834 835 836 837 838 839 840 841 842 843 844 845 846 848 849 850 851 852 853 854 855 856 857 858 859 859 860 861 862 862 863 863 864 864
824 826 827 828 829 830 831 832 833 834 835 836 837 838 839 840 841 842 843 844 845 847 848 849 850 851 852 853 854 855 856 857 858 859 860 860 861 862 862 862 863 864
823 824 825 827 828 829 830 831 832 833 834 835 836 837 838 839 840 841 842 843 845 846 847 848 849 850 851 852 853 855 855 856 857 858 859 859 860 861 861 862 862 863
821 823 824 826 827 828 829 830 831 832 832 833 834 836 837 837 839 840 841 842 843 845 846 847 848 849 851 851 853 854 855 856 857 857 858 859 860 860 861 862 862 862
820 821 822 824 825 826 828 828 829 830 831 832 833 834 836 836 837 839 840 841 842 844 845 846 847 848 849 850 852 853 854 855 856 856 857 858 859 860 860 861 861 862
818 819 821 823 824 825 826 827 828 829 830 831 831 833 834 835 836 837 839 840 841 842 844 845 846 847 848 849 851 852 853 854 855 855 857 857 858 859 859 860 861 861
817 818 820 821 822 824 825 826 827 828 829 830 830 831 832 833 835 836 837 839 840 841 842 843 845 846 847 848 849 851 852 853 854 855 856 857 858 858 859 859 860 860
816 817 818 820 821 822 823 824 825 826 827 828 829 830 831 832 833 834 836 837 838 840 841 842 843 844 846 847 848 850 851 852 853 854 855 856 857 858 858 859 860 860
816 816 817 818 819 820 821 822 824 825 826 827 828 829 829 830 831 833 834 835 837 838 839 841 842 843 845 846 847 848 850 851 852 852 853 855 856 857 857 858 859 860
815 816 817 817 818 819 820 821 822 823 824 825 827 827 828 829 830 831 832 833 835 837 838 839 841 842 843 845 846 847 848 849 850 852 853 853 855 856 856 857 858 859
815 815 816 816 817 817 818 819 820 821 822 824 825 826 827 827 828 830 831 832 833 835 836 838 839 841 842 843 845 846 847 848 849 850 852 852 854 855 855 856 857 858
813 813 815 817 818 818 818 818 819 820 821 822 823 825 826 827 827 828 830 831 832 834 835 837 838 839 841 842 844 845 846 847 848 849 850 851 852 853 854 855 856 857
812 815 817 817 819 820 819 818 818 819 820 821 822 823 824 825 826 827 828 830 832 833 834 836 837 838 840 841 842 844 845 845 846 848 849 850 851 852 853 854 854 855
810 816 818 819 821 821 820 819 818 819 820 820 821 821 823 824 825 825 826 828 830 832 833 835 836 837 838 839 840 842 843 844 845 846 847 848 849 850 851 852 852 853
808 814 819 823 823 820 818 817 819 821 821 821 821 821 821 822 823 825 825 825 827 829 831 833 834 835 836 837 838 839 841 842 843 844 845 846 847 848 849 849 850 851
809 811 818 823 822 818 816 816 820 825 826 824 822 821 821 821 822 823 824 825 825 826 828 830 832 833 834 835 836 837 839 840 841 842 843 844 845 846 847 847 848 849
810 811 814 818 820 820 818 817 820 825 828 828 826 824 823 822 822 822 823 824 824 824 826 827 829 830 832 833 833 834 836 838 839 840 841 841 842 843 844 845 845 846
811 812 814 816 817 820 822 820 820 821 824 827 827 826 825 823 822 822 822 823 824 823 824 824 825 827 828 830 831 832 834 835 837 838 839 839 840 840 842 842 843 844
813 814 816 817 817 820 822 821 821 819 818 820 822 824 825 824 823 821 821 822 822 822 822 822 822 823 824 825 827 828 830 832 834 836 836 837 838 838 839 839 840 841
816 816 817 817 818 819 820 820 819 818 816 815 816 818 821 823 824 822 821 820 819 819 818 818 818 819 819 820 822 823 826 828 829 831 833 834 835 835 836 836 837 838
818 818 818 817 817 817 817 816 816 816 815 814 813 815 817 820 822 822 821 820 819 819 818 817 817 817 817 818 819 820 821 823 824 826 828 830 831 832 833 833 834 835
819 818 818 817 816 815 815 814 814 814 813 812 811 812 813 815 817 817 817 817 818 818 818 817 817 817 817 818 819 819 820 820 820 821 823 824 826 827 828 829 830 831
818 818 817 817 816 815 814 813 813 813 812 811 811 810 811 812 813 813 813 813 814 814 815 815 814 814 815 815 816 818 818 818 818 818 819 819 820 821 823 824 825 827
818 817 817 816 816 816 815 814 813 812 811 810 810 810 811 812 813 813 813 812 812 812 812 812 812 811 812 813 814 814 814 814 815 815 815 815 816 817 818 819 820 821
818 817 816 815 816 816 815 814 813 811 809 808 808 809 810 811 813 813 813 812 812 811 810 809 809 809 810 811 811 811 811 811 812 812 811 811 812 813 814 814 815 816
Wind_Speed
18 18 17 16 15 15 15 15 15 14 14 14 14 15 15 15 15 15 15 14 13 12 12 11 10 10 9 8 8 9 9 10 10 10 10 9 9 8 7 6 5 5
19 18 18 17 17 16 16 15 15 15 14 14 13 14 14 13 14 15 15 14 14 13 12 11 10 10 9 9 9 9 9 10 10 10 10 10 10 9 8 8 7 6
20 19 19 18 17 17 16 16 16 15 14 14 13 14 14 14 14 15 15 15 14 13 13 12 11 11 10 9 10 10 9 10 10 9 10 11 10 10 10 9 8 8
21 20 20 19 18 17 17 17 17 17 15 15 15 14 14 15 15 16 15 15 14 14 13 12 11 11 11 11 10 10 10 9 10 9 9 10 10 10 10 10 9 9
22 22 21 20 19 19 19 18 17 17 17 16 16 15 15 15 16 16 16 16 15 14 13 12 12 13 12 12 11 10 10 10 10 10 10 10 11 10 10 10 10 10
22 22 22 21 20 20 20 20 19 18 18 18 17 17 16 16 16 16 16 16 15 14 14 14 14 13 13 13 12 11 10 10 11 11 11 11 11 11 10 11 11 11
22 23 22 21 21 21 21 21 20 20 19 19 19 19 18 18 18 17 17 17 16 15 15 15 15 14 14 13 13 13 12 10 10 12 13 12 11 11 11 11 11 12
22 22 22 22 21 21 22 21 21 22 21 20 19 20 20 20 19 19 18 18 17 16 16 16 17 16 15 15 15 14 12 11 11 13 14 13 12 12 11 11 10 11
22 21 22 22 22 22 22 22 22 22 22 21 20 20 21 21 21 20 20 19 18 18 17 16 17 17 16 16 15 15 14 12 12 13 14 13 12 12 12 11 11 11
21 22 22 22 22 22 23 23 22 22 23 23 21 21 21 22 22 21 21 22 20 19 19 18 17 17 17 16 16 16 15 14 13 13 13 14 14 13 12 12 12 12
20 21 21 23 23 22 23 24 23 22 23 24 23 21 21 22 23 22 21 23 23 20 20 21 19 18 17 17 16 16 16 15 14 14 13 13 14 13 13 14 14 14
24 22 21 22 23 23 22 23 24 23 22 23 24 23 21 21 23 24 22 23 24 23 21 21 22 20 18 18 16 16 16 15 14 14 14 14 14 14 14 14 15 15
20 21 23 23 21 23 24 22 22 24 23 23 23 23 23 21 21 23 23 22 23 23 22 21 22 22 20 19 18 16 16 16 16 15 15 15 14 14 14 14 15 16
13 16 22 24 23 22 25 25 23 23 23 24 24 24 23 22 21 22 23 22 21 22 22 21 22 22 21 21 20 19 17 17 17 16 16 16 16 15 15 15 16 16
10 15 18 20 26 27 22 21 23 23 24 23 23 24 23 23 22 21 22 23 22 22 21 20 21 22 22 22 22 21 20 19 19 19 18 17 17 16 16 16 16 16
7 11 15 18 24 27 23 18 19 20 22 24 23 23 22 23 24 23 21 22 23 24 23 21 21 21 22 23 23 23 23 21 20 20 20 19 18 17 17 17 16 17
5 7 13 18 20 20 18 17 21 27 26 21 21 23 23 22 23 23 22 21 22 24 24 23 21 20 22 24 25 25 24 23 22 21 20 21 20 19 18 18 17 17
12 10 11 16 18 17 14 13 19 27 30 29 24 18 18 20 21 23 22 21 20 19 21 23 23 22 22 23 26 27 26 24 23 21 20 20 20 20 20 19 19 19
17 16 17 20 18 17 17 13 12 17 19 22 29 29 22 18 16 18 20 21 21 20 18 20 22 23 24 24 25 27 28 27 25 22 21 21 21 21 21 20 20 21
19 19 19 20 18 16 15 13 10 10 10 13 16 18 19 20 19 16 14 16 18 21 21 19 18 20 24 27 27 27 28 30 29 25 22 22 22 22 22 21 21 22
19 19 18 17 16 15 13 10 8 8 7 8 9 9 12 16 18 18 16 15 14 16 19 20 19 16 17 24 30 31 29 29 31 30 26 23 23 23 22 23 23 23
16 16 16 16 16 15 13 11 9 8 6 5 6 6 7 10 15 18 18 17 18 17 17 20 22 20 17 18 23 29 31 31 32 33 31 28 26 26 24 23 23 24
14 13 14 15 15 16 15 13 12 11 10 8 6 6 6 8 12 17 18 18 19 19 19 21 24 25 24 23 21 23 29 33 33 34 34 33 31 30 29 27 25 24
13 12 13 13 14 15 15 14 13 13 12 10 8 7 6 7 10 14 17 19 21 22 22 22 23 24 25 26 25 23 24 31 35 35 35 35 34 33 32 31 30 29
14 13 12 12 12 13 13 12 12 12 12 12 12 11 10 9 10 12 13 15 18 20 22 23 25 24 23 24 27 25 23 27 32 34 34 34 34 33 32 32 32 33
13 13 13 12 10 10 12 12 11 11 12 13 14 14 13 13 14 15 14 14 14 14 17 20 22 23 23 23 25 27 25 25 28 32 33 32 33 32 31 31 32 33
Wind_Direction
195 194 194 194 193 193 191 189 191 190 188 188 185 186 190 186 186 190 189 188 189 189 191 190 188 184 181 182 183 182 186 191 196 197 200 203 207 215 224 220 217 244
195 195 196 197 199 200 199 195 194 196 195 194 189 186 188 186 184 186 186 187 189 189 190 191 191 189 185 186 187 185 189 193 196 200 202 203 209 215 221 219 210 225
197 196 197 199 201 201 202 201 199 199 198 198 196 190 188 188 187 186 185 187 189 191 195 194 191 192 191 193 193 190 194 195 195 202 204 202 207 213 220 225 216 215
199 200 200 201 204 203 202 202 201 201 200 198 198 195 193 191 190 189 188 189 189 193 200 198 192 193 194 197 197 194 199 200 197 202 204 204 208 215 221 228 228 222
200 202 203 204 205 204 203 204 202 202 202 200 198 198 199 195 190 191 192 194 193 193 198 197 196 199 198 198 199 198 201 203 201 203 204 206 210 215 223 227 229 232
201 203 205 206 208 206 205 207 205 203 202 201 199 199 201 198 193 194 194 195 196 195 196 196 199 203 201 200 203 203 203 206 208 206 205 210 213 214 221 225 224 229
201 205 205 206 210 209 208 209 208 206 204 203 201 199 201 200 197 198 198 197 198 199 199 198 199 202 203 203 208 209 207 211 215 210 207 213 218 218 223 227 222 222
203 205 205 206 209 211 212 211 209 210 208 206 204 201 201 201 199 200 201 201 201 201 203 203 199 200 203 205 209 211 209 212 216 212 211 215 221 223 227 232 230 223
208 206 205 206 209 212 214 213 211 211 211 210 208 205 204 203 201 202 203 203 204 204 206 206 203 200 202 205 208 210 210 212 216 215 213 216 222 226 226 231 236 231
216 214 209 208 210 213 214 215 214 211 210 211 212 209 206 205 204 204 204 203 204 207 207 207 207 204 204 207 209 211 213 215 219 219 216 217 222 226 228 229 233 234
233 227 220 214 213 216 215 215 216 214 210 210 213 213 210 206 206 206 206 204 204 207 208 208 210 208 206 209 211 213 215 217 222 224 222 222 225 228 231 231 232 235
242 236 235 228 218 218 220 217 216 217 214 209 211 216 215 209 207 206 207 207 205 207 209 209 211 211 210 212 212 214 216 217 222 226 225 227 230 232 234 235 236 237
249 243 250 250 235 225 224 222 219 218 217 213 209 213 218 217 211 206 208 210 208 207 210 212 211 212 213 214 214 215 218 218 220 224 226 228 231 234 234 236 238 239
282 285 277 273 271 259 237 226 226 222 220 219 210 207 215 220 218 210 205 209 211 210 210 213 214 212 213 215 216 216 219 221 221 223 226 228 229 232 235 236 239 240
281 308 301 282 280 285 272 244 237 230 223 224 217 209 211 216 221 221 209 204 209 212 211 213 216 214 213 214 215 216 218 221 223 223 226 230 230 232 234 237 240 242
264 290 302 285 274 284 292 285 278 265 241 230 224 220 217 214 215 222 219 207 203 207 211 213 217 218 217 216 215 216 217 220 223 224 225 229 233 235 236 238 240 243
339 299 302 301 292 290 286 278 290 300 291 268 243 229 223 219 214 217 224 220 209 205 207 211 217 220 220 220 219 218 218 220 223 226 225 228 232 236 239 241 243 246
5 355 343 339 333 326 311 275 271 289 305 315 309 279 246 232 221 215 220 228 227 218 209 208 215 221 224 225 224 222 222 221 223 228 229 229 231 234 238 241 244 247
9 8 10 11 3 346 338 329 291 274 285 309 323 324 313 292 265 235 223 227 234 238 232 220 216 218 221 225 229 228 226 224 224 228 231 231 232 233 235 238 241 244
14 13 12 17 16 4 358 353 327 295 275 276 295 307 302 297 297 284 258 243 238 239 245 246 238 228 221 220 225 229 229 228 227 228 232 236 237 236 236 238 240 241
19 16 14 17 15 10 14 12 335 310 303 286 281 279 263 268 288 294 283 275 261 243 241 246 249 249 236 224 223 225 227 228 228 228 231 237 241 242 242 242 242 243
22 17 13 14 13 8 9 12 357 337 325 303 299 311 289 272 283 286 279 277 277 268 256 248 244 247 249 241 232 228 226 226 226 227 229 234 239 244 246 247 247 246
18 20 14 9 10 9 6 5 359 350 338 317 297 296 283 262 262 266 263 263 266 264 262 259 251 246 247 250 249 240 232 228 226 225 227 231 235 240 244 248 250 250
10 18 19 11 9 8 5 1 356 352 345 330 318 315 305 282 268 264 259 258 258 255 255 257 256 250 246 244 245 246 240 233 229 226 227 230 233 236 240 243 246 248
9 13 11 7 9 10 7 3 356 351 351 345 339 334 327 312 298 289 279 271 267 263 259 258 258 257 253 244 240 241 240 235 231 228 227 230 232 234 238 240 243 246
5 6 359 353 360 5 3 358 347 337 338 343 346 339 326 311 299 292 285 277 272 264 258 259 260 259 258 253 246 243 242 239 233 229 228 230 231 232 236 239 241 245